Back to catalog

FENGYUN 1C DEB

LostSSO
NORAD 31162·DEBRIS·🇨🇳 China

Launched May 10, 1999 from Taiyuan Satellite Launch Center

Loading…

Next Passes (next 24 hours)

TLE

StaleSource: Space-Track

Epoch: Jul 16, 2008, 04:15 UTC

1 31162U 99025BHQ 08198.17738174  .00000568  00000-0  40040-3 0  9992
2 31162  99.2571 175.9319 0130588 344.9770  14.8021 13.98255392 68177

Track FENGYUN 1C DEB in real time with AllMySat

Download on the App Store